Weather History for Iowa City, IA

Change the Weather History Date:

Thursday, January 23, 2014

  Actual Average Record
Temperature  
Mean Temperature -3 °F 22 °F  
Max Temperature 3 °F 30 °F 54 °F (1981)
Min Temperature -9 °F 14 °F -21 °F (1963)
Degree Days  
Heating Degree Days 68 43  
Month to date heating degree days 1160 989  
Since 1 July heating degree days 3950 3528  
Cooling Degree Days 0 0  
Month to date cooling degree days 0 0  
Year to date cooling degree days 0 0  
Moisture  
Dew Point -12 °F    
Average Humidity 71    
Maximum Humidity 82    
Minimum Humidity 59    
Precipitation  
Precipitation 0.00 in 0.04 in 1.12 in (1969)
Month to date precipitation 0.32 0.53  
Year to date precipitation 0.32 0.53  
Sea Level Pressure  
Sea Level Pressure 30.70 in    
Wind  
Wind Speed 11 mph (NW)    
Max Wind Speed 22 mph    
Max Gust Speed 28 mph    
Visibility 10 miles    
Events      
T = Trace of Precipitation, MM = Missing Value Source: NWS Daily Summary

Daily Weather History Graph

Daily Weather History Graph

Search for Another Location

Airport:

Trip Planner

Search our weather history database for the weather conditions in past years. The results will help you decide how hot, cold, wet, or windy it might be!

Date:

Astronomy

Jan. 23, 2014 Rise Set
Actual Time 7:25 AM CST 5:10 PM CST
Civil Twilight 6:55 AM CST 5:40 PM CST
Nautical Twilight 6:22 AM CST 6:14 PM CST
Astronomical Twilight 5:49 AM CST 6:47 PM CST
Moon No Moon Rise 10:55 AM CST (1/23)
Length of Visible Light 10h 44m
Length of Day
9h 44m
Waning Gibbous, 55% of the Moon is Illuminated
Jan 23
Waning Gibbous
Jan 23
Last Quarter
Jan 30
New
Feb 6
First Quarter
Feb 14
Full

Hourly Weather History & Observations

Time (CST) Temp. Windchill Dew Point Humidity Pressure Visibility Wind Dir Wind Speed Gust Speed Precip Events Conditions
12:52 AM -2.9 °F -23.1 °F -11.0 °F 68% 30.50 in 10.0 mi NW 15.0 mph 21.9 mph N/A   Clear
1:52 AM -4.0 °F -23.0 °F -11.9 °F 69% 30.53 in 10.0 mi WNW 12.7 mph - N/A   Clear
2:52 AM -5.1 °F -26.6 °F -13.0 °F 69% 30.56 in 10.0 mi NW 16.1 mph - N/A   Clear
3:52 AM -6.0 °F -27.0 °F -14.1 °F 68% 30.58 in 10.0 mi NW 15.0 mph - N/A   Clear
4:52 AM -6.0 °F -26.3 °F -14.1 °F 68% 30.62 in 10.0 mi NW 13.8 mph - N/A   Clear
5:52 AM -7.1 °F -27.6 °F -15.0 °F 68% 30.66 in 10.0 mi NW 13.8 mph - N/A   Clear
6:52 AM -7.1 °F -29.8 °F -15.0 °F 68% 30.69 in 10.0 mi NW 17.3 mph 26.5 mph N/A   Clear
7:52 AM -8.0 °F -31.0 °F -16.1 °F 68% 30.71 in 10.0 mi NW 17.3 mph 23.0 mph N/A   Clear
8:52 AM -7.1 °F -29.8 °F -15.0 °F 68% 30.73 in 10.0 mi NW 17.3 mph 27.6 mph N/A   Clear
9:52 AM -5.1 °F -26.6 °F -14.1 °F 65% 30.77 in 10.0 mi NW 16.1 mph 25.3 mph N/A   Clear
10:52 AM -4.0 °F -22.1 °F -13.0 °F 65% 30.79 in 10.0 mi WNW 11.5 mph 20.7 mph N/A   Clear
11:52 AM -2.0 °F -21.2 °F -11.9 °F 63% 30.79 in 10.0 mi NW 13.8 mph - N/A   Clear
12:52 PM -0.9 °F -21.2 °F -11.0 °F 62% 30.78 in 10.0 mi WNW 16.1 mph 21.9 mph N/A   Clear
1:52 PM 1.0 °F -18.0 °F -9.0 °F 63% 30.76 in 10.0 mi NW 15.0 mph - N/A   Clear
2:52 PM 1.9 °F -17.5 °F -8.0 °F 63% 30.76 in 10.0 mi NW 16.1 mph 21.9 mph N/A   Clear
3:52 PM 3.0 °F -15.5 °F -8.0 °F 60% 30.76 in 10.0 mi NW 15.0 mph - N/A   Clear
4:52 PM 3.0 °F -11.5 °F -8.0 °F 60% 30.77 in 10.0 mi NW 9.2 mph - N/A   Clear
5:52 PM 1.0 °F -8.7 °F -8.0 °F 66% 30.76 in 10.0 mi WNW 4.6 mph - N/A   Clear
6:52 PM -2.9 °F -11.2 °F -9.9 °F 72% 30.76 in 10.0 mi West 3.5 mph - N/A   Clear
7:52 PM -4.0 °F - -9.9 °F 76% 30.75 in 10.0 mi Calm Calm - N/A   Clear
8:52 PM -6.0 °F - -11.9 °F 75% 30.72 in 10.0 mi Calm Calm - N/A   Clear
9:52 PM -8.0 °F - -13.0 °F 79% 30.70 in 10.0 mi Calm Calm - N/A   Clear
10:52 PM -6.0 °F - -9.9 °F 83% 30.66 in 10.0 mi Calm Calm - N/A   Clear
11:52 PM -5.1 °F - -9.9 °F 80% 30.63 in 10.0 mi Calm Calm - N/A   Clear